USA 270

Last updated on Mon Feb 16 2026 00:02:49 GMT+0000 (Coordinated Universal Time)

1 41744U 16052A 26045.39289832 -.00000049 00000+0 00000+0 0 9997 2 41744 3.8823 78.7764 0003150 283.6264 88.6596 1.00327014 26902
UTC large
Height (km)
Speed (km/s)
/
Latitude / Longitude
Inclination (degrees)
Orbital Period (minutes)
Azimuth
Elevation
Range (km)
Doppler Factor

Next 0 passes for location: London (51.5072 / 0.1276)

Sorry there are no passes over London.